Starlink 11714

operational
NORAD ID: 64134 Int'l Des: 2025-111 Owner: SPXS Country: US Constellation: starlink
LEOCIRCULAR

关于 Starlink 11714

正在加载描述...

实时位置

正在加载3D地球...

即将过境

高度历史

Altitude vs Time

uPlot chart will show altitude changes over time

两行轨道根数

1 64134U 25111M 25352.68329437 .00309273 00000-0 23146-2 0 9999
2 64134 43.0004 101.7049 0001955 297.3934 62.6734 15.70949024 33904
Epoch: Dec 18, 2025 • Age: 27 hours

当前状态

高度 358.1 km
速度 7.70 km/s
星下点 -17.66°S, 81.94°W
发射日期 May 24, 2025
运行时间 0.5 years
类型 internet

技术详情

分类 Payload
质量 960.00 kg
干质量 910.00 kg
总质量 960.00 kg
长度 0.30 m
直径 4.10 m
跨度 29.00 m
形状 Box + pan
制造商 SPXS
平台类型 Starlink V2MD
阶段状态 In Orbit
所有者/国家 SPXS/US

大型星座

Loading constellations...